TimeCDT,TemperatureF,Dew PointF,Humidity,Sea Level PressureIn,VisibilityMPH,Wind Direction,Wind SpeedMPH,Gust SpeedMPH,PrecipitationIn,Events,Conditions,WindDirDegrees,DateUTC
12:07 AM,57.2,50.0,77,29.95,10.0,South,6.9,-,N/A,,Overcast,170,2013-09-18 05:07:00
12:26 AM,57.2,50.0,77,29.95,10.0,South,9.2,-,N/A,,Overcast,180,2013-09-18 05:26:00
12:47 AM,57.2,51.8,82,29.95,10.0,SSW,12.7,-,N/A,,Overcast,200,2013-09-18 05:47:00
1:07 AM,57.2,51.8,82,29.95,10.0,South,9.2,18.4,N/A,,Overcast,190,2013-09-18 06:07:00
1:26 AM,57.2,51.8,82,29.94,10.0,South,9.2,-,N/A,,Overcast,180,2013-09-18 06:26:00
1:47 AM,57.2,53.6,88,29.93,10.0,South,6.9,-,N/A,,Overcast,180,2013-09-18 06:47:00
2:07 AM,57.2,53.6,88,29.92,10.0,South,8.1,-,N/A,,Overcast,180,2013-09-18 07:07:00
2:26 AM,57.2,53.6,88,29.92,10.0,South,5.8,-,N/A,,Overcast,190,2013-09-18 07:26:00
2:47 AM,57.2,53.6,88,29.91,10.0,South,5.8,-,N/A,,Overcast,170,2013-09-18 07:47:00
3:07 AM,57.2,53.6,88,29.90,10.0,South,5.8,-,N/A,,Overcast,170,2013-09-18 08:07:00
3:26 AM,57.2,53.6,88,29.90,10.0,SSE,6.9,-,N/A,,Overcast,160,2013-09-18 08:26:00
3:47 AM,57.2,53.6,88,29.90,10.0,South,5.8,-,N/A,,Overcast,170,2013-09-18 08:47:00
4:06 AM,57.2,53.6,88,29.89,10.0,South,4.6,-,N/A,,Overcast,180,2013-09-18 09:06:00
4:27 AM,57.2,53.6,88,29.89,10.0,South,5.8,-,N/A,,Overcast,190,2013-09-18 09:27:00
4:47 AM,57.2,53.6,88,29.89,10.0,South,4.6,-,N/A,,Overcast,170,2013-09-18 09:47:00
5:07 AM,57.2,55.4,94,29.88,7.0,South,4.6,-,N/A,,Overcast,170,2013-09-18 10:07:00
5:27 AM,57.2,55.4,94,29.88,4.0,SE,3.5,-,N/A,,Overcast,140,2013-09-18 10:27:00
5:47 AM,57.2,55.4,94,29.88,4.0,SSE,3.5,-,N/A,,Overcast,150,2013-09-18 10:47:00
6:07 AM,57.2,55.4,94,29.88,2.0,SE,3.5,-,N/A,,Overcast,130,2013-09-18 11:07:00
6:27 AM,57.2,55.4,94,29.88,1.8,Calm,Calm,-,N/A,,Overcast,0,2013-09-18 11:27:00
6:47 AM,57.2,55.4,94,29.88,1.8,Calm,Calm,-,N/A,,Overcast,0,2013-09-18 11:47:00
7:07 AM,57.2,55.4,94,29.88,1.5,Calm,Calm,-,N/A,,Overcast,0,2013-09-18 12:07:00
7:27 AM,57.2,55.4,94,29.87,1.0,Calm,Calm,-,N/A,,Overcast,0,2013-09-18 12:27:00
7:47 AM,57.2,55.4,94,29.87,0.8,SE,3.5,-,N/A,,Overcast,130,2013-09-18 12:47:00
8:06 AM,57.2,55.4,94,29.87,1.0,Calm,Calm,-,N/A,,Overcast,0,2013-09-18 13:06:00
8:27 AM,57.2,55.4,94,29.87,1.8,SE,3.5,-,N/A,,Overcast,140,2013-09-18 13:27:00
8:47 AM,57.2,55.4,94,29.87,1.8,SE,4.6,-,N/A,,Overcast,140,2013-09-18 13:47:00
9:06 AM,57.2,55.4,94,29.87,2.5,SSE,4.6,-,N/A,,Overcast,150,2013-09-18 14:06:00
9:27 AM,57.2,55.4,94,29.87,2.0,SE,4.6,-,N/A,,Overcast,140,2013-09-18 14:27:00
9:47 AM,57.2,55.4,94,29.88,1.8,Calm,Calm,-,N/A,,Overcast,0,2013-09-18 14:47:00
10:07 AM,57.2,55.4,94,29.87,1.8,Calm,Calm,-,N/A,,Overcast,0,2013-09-18 15:07:00
10:27 AM,57.2,55.4,94,29.87,2.0,SE,3.5,-,N/A,,Overcast,140,2013-09-18 15:27:00
10:47 AM,57.2,55.4,94,29.87,1.5,SE,5.8,-,N/A,,Overcast,140,2013-09-18 15:47:00
11:07 AM,59.0,57.2,94,29.86,1.5,SSE,5.8,-,N/A,,Overcast,150,2013-09-18 16:07:00
11:27 AM,59.0,59.0,100,29.85,1.5,SSE,5.8,-,N/A,,Overcast,150,2013-09-18 16:27:00
11:47 AM,59.0,59.0,100,29.85,1.8,SE,6.9,-,N/A,,Overcast,140,2013-09-18 16:47:00
12:07 PM,59.0,59.0,100,29.84,2.5,SE,3.5,-,N/A,,Overcast,140,2013-09-18 17:07:00
12:27 PM,59.0,59.0,100,29.83,3.0,SE,5.8,-,N/A,,Overcast,140,2013-09-18 17:27:00
12:47 PM,60.8,59.0,94,29.82,7.0,SSE,4.6,-,N/A,,Overcast,150,2013-09-18 17:47:00
1:07 PM,62.6,60.8,94,29.81,10.0,SSE,4.6,-,N/A,,Overcast,150,2013-09-18 18:07:00
1:27 PM,62.6,60.8,94,29.80,10.0,SSE,8.1,-,N/A,,Overcast,160,2013-09-18 18:27:00
1:47 PM,62.6,59.0,88,29.79,10.0,SSE,9.2,-,N/A,,Overcast,150,2013-09-18 18:47:00
2:07 PM,62.6,59.0,88,29.79,10.0,SSE,5.8,-,N/A,,Overcast,150,2013-09-18 19:07:00
2:27 PM,62.6,59.0,88,29.79,10.0,SE,4.6,-,N/A,,Overcast,140,2013-09-18 19:27:00
2:47 PM,62.6,59.0,88,29.79,10.0,SE,4.6,-,N/A,,Overcast,140,2013-09-18 19:47:00
3:07 PM,62.6,59.0,88,29.79,10.0,SE,5.8,-,N/A,,Overcast,140,2013-09-18 20:07:00
3:26 PM,62.6,60.8,94,29.78,10.0,SE,9.2,-,N/A,,Overcast,140,2013-09-18 20:26:00
3:47 PM,62.6,60.8,94,29.78,10.0,SSE,9.2,-,N/A,,Overcast,150,2013-09-18 20:47:00
4:07 PM,62.6,60.8,94,29.78,10.0,SSE,10.4,-,N/A,,Overcast,150,2013-09-18 21:07:00
4:26 PM,62.6,60.8,94,29.78,7.0,SSE,6.9,-,N/A,,Overcast,150,2013-09-18 21:26:00
4:47 PM,62.6,60.8,94,29.78,4.0,SSE,8.1,-,N/A,,Overcast,150,2013-09-18 21:47:00
5:07 PM,62.6,60.8,94,29.77,2.0,SSE,9.2,-,N/A,,Overcast,150,2013-09-18 22:07:00
5:26 PM,62.6,60.8,94,29.77,2.5,SE,8.1,-,N/A,,Overcast,140,2013-09-18 22:26:00
5:47 PM,62.6,60.8,94,29.77,3.0,SE,8.1,-,N/A,,Overcast,140,2013-09-18 22:47:00
6:07 PM,62.6,60.8,94,29.77,4.0,SE,6.9,-,N/A,,Overcast,130,2013-09-18 23:07:00
6:27 PM,62.6,60.8,94,29.76,7.0,SE,5.8,-,N/A,,Overcast,130,2013-09-18 23:27:00
6:47 PM,62.6,60.8,94,29.76,10.0,SE,8.1,-,N/A,,Overcast,140,2013-09-18 23:47:00
7:07 PM,62.6,60.8,94,29.76,10.0,SE,6.9,-,N/A,,Overcast,140,2013-09-19 00:07:00
7:27 PM,62.6,60.8,94,29.76,10.0,SE,8.1,-,N/A,,Overcast,140,2013-09-19 00:27:00
7:47 PM,62.6,60.8,94,29.77,7.0,SE,5.8,-,N/A,,Overcast,140,2013-09-19 00:47:00
8:07 PM,62.6,60.8,94,29.78,5.0,SSE,5.8,-,N/A,,Overcast,150,2013-09-19 01:07:00
8:27 PM,62.6,60.8,94,29.78,3.0,SE,5.8,-,N/A,,Overcast,130,2013-09-19 01:27:00
8:47 PM,62.6,60.8,94,29.78,3.0,SE,5.8,-,N/A,,Overcast,130,2013-09-19 01:47:00
9:07 PM,62.6,60.8,94,29.78,3.0,SE,4.6,-,N/A,,Overcast,130,2013-09-19 02:07:00
9:27 PM,62.6,60.8,94,29.78,3.0,SE,4.6,-,N/A,,Overcast,130,2013-09-19 02:27:00
9:47 PM,62.6,60.8,94,29.79,3.0,SE,5.8,-,N/A,,Overcast,140,2013-09-19 02:47:00
10:07 PM,-9999,-9999,N/A,29.79,2.5,SE,5.8,-,N/A,,Overcast,140,2013-09-19 03:07:00
10:27 PM,62.6,60.8,94,29.79,3.0,SE,5.8,-,N/A,,Overcast,140,2013-09-19 03:27:00
10:47 PM,62.6,60.8,94,29.79,2.0,SE,3.5,-,N/A,,Overcast,130,2013-09-19 03:47:00
11:07 PM,62.6,60.8,94,29.77,2.0,ESE,5.8,-,N/A,,Overcast,120,2013-09-19 04:07:00
11:27 PM,62.6,62.6,100,29.76,2.0,SE,4.6,-,N/A,,Overcast,130,2013-09-19 04:27:00
11:47 PM,62.6,62.6,100,29.76,2.0,ESE,4.6,-,N/A,,Overcast,120,2013-09-19 04:47:00